Change the Weather History Date:

Friday, December 6, 2013

  Actual Average Record
Temperature  
Mean Temperature 37 °F 43 °F  
Max Temperature 44 °F 49 °F 74 °F (1977)
Min Temperature 29 °F 37 °F 21 °F (1960)
Degree Days  
Heating Degree Days 28 22  
Month to date heating degree days 119 129  
Since 1 July heating degree days 673 908  
Cooling Degree Days 0 0  
Month to date cooling degree days 0 0  
Year to date cooling degree days 1565 998  
Moisture  
Dew Point 23 °F    
Average Humidity 61    
Maximum Humidity 85    
Minimum Humidity 36    
Precipitation  
Precipitation 0.00 in 0.06 in 2.70 in (1992)
Month to date precipitation T 0.29  
Year to date precipitation 3.61 10.37  
Since 1 July precipitation 0.70 1.89  
Sea Level Pressure  
Sea Level Pressure 30.04 in    
Wind  
Wind Speed 13 mph (SSW)    
Max Wind Speed 23 mph    
Max Gust Speed 30 mph    
Visibility 10 miles    
Events      
T = Trace of Precipitation, MM = Missing Value Source: NWS Daily Summary

Daily Weather History Graph

Daily Weather History Graph

Search for Another Location

Airport or City:

Trip Planner

Search our weather history database for the weather conditions in past years. The results will help you decide how hot, cold, wet, or windy it might be!

Date:

Astronomy

Dec. 06, 2013 Rise Set
Actual Time 6:48 AM PST 4:43 PM PST
Civil Twilight 6:20 AM PST 5:11 PM PST
Nautical Twilight 5:49 AM PST 5:42 PM PST
Astronomical Twilight 5:18 AM PST 6:13 PM PST
Moon 10:03 AM PST (12/6) 9:14 PM PST (12/6)
Length of Visible Light 10h 50m
Length of Day
9h 55m
Waxing Crescent, 20% of the Moon is Illuminated
Dec 6
Waxing Crescent
Dec 9
First Quarter
Dec 17
Full
Dec 25
Last Quarter
Jan 1
New

Hourly Weather History & Observations

Time (PST) Temp. Windchill Dew Point Humidity Pressure Visibility Wind Dir Wind Speed Gust Speed Precip Events Conditions
12:48 AM 30.9 °F 22.8 °F 7.0 °F 37% 30.01 in 10.0 mi SSW 9.2 mph - N/A   Clear
1:48 AM 30.9 °F 23.5 °F 16.0 °F 54% 30.01 in 10.0 mi South 8.1 mph - N/A   Clear
2:48 AM 30.0 °F 21.7 °F 10.9 °F 45% 30.02 in 10.0 mi SSW 9.2 mph - N/A   Clear
3:48 AM 28.9 °F 21.1 °F 10.9 °F 47% 30.04 in 10.0 mi SSW 8.1 mph - N/A   Clear
4:48 AM 30.0 °F 21.1 °F 19.9 °F 66% 30.04 in 10.0 mi SSW 10.4 mph - N/A   Clear
5:48 AM 30.9 °F 20.7 °F 23.0 °F 72% 30.05 in 10.0 mi SSW 13.8 mph 20.7 mph N/A   Clear
6:48 AM 30.9 °F 21.2 °F 25.0 °F 79% 30.06 in 10.0 mi South 12.7 mph - N/A   Clear
7:07 AM 30.2 °F 20.8 °F 24.8 °F 80% 30.05 in 10.0 mi South 11.5 mph - N/A   Partly Cloudy
7:31 AM 30.2 °F 20.2 °F 26.6 °F 86% 30.05 in 10.0 mi SSW 12.7 mph - N/A   Mostly Cloudy
7:48 AM 32.0 °F 22.1 °F 26.1 °F 79% 30.08 in 10.0 mi SSW 13.8 mph - N/A   Scattered Clouds
8:48 AM 36.0 °F 27.1 °F 28.0 °F 73% 30.08 in 10.0 mi South 13.8 mph 20.7 mph N/A   Scattered Clouds
9:16 AM 35.6 °F 26.2 °F 26.6 °F 70% 30.09 in 10.0 mi South 15.0 mph - N/A   Mostly Cloudy
9:46 AM 37.4 °F 27.8 °F 26.6 °F 65% 30.09 in 10.0 mi South 17.3 mph 23.0 mph N/A   Scattered Clouds
9:48 AM 37.0 °F 27.4 °F 27.0 °F 67% 30.09 in 10.0 mi South 17.3 mph - N/A   Scattered Clouds
10:48 AM 39.9 °F 30.8 °F 26.1 °F 58% 30.08 in 10.0 mi South 18.4 mph - N/A   Clear
11:48 AM 42.1 °F 33.9 °F 26.1 °F 53% 30.05 in 10.0 mi South 17.3 mph 25.3 mph N/A   Clear
12:48 PM 43.0 °F 34.8 °F 26.1 °F 51% 30.03 in 10.0 mi South 18.4 mph 25.3 mph N/A   Clear
1:48 PM 43.0 °F 34.8 °F 24.1 °F 47% 30.00 in 10.0 mi South 18.4 mph 27.6 mph N/A   Clear
2:48 PM 42.1 °F 33.6 °F 24.1 °F 49% 30.01 in 10.0 mi SSW 18.4 mph - N/A   Partly Cloudy
3:48 PM 41.0 °F 34.3 °F 25.0 °F 53% 30.02 in 10.0 mi South 11.5 mph 20.7 mph N/A   Partly Cloudy
4:48 PM 37.0 °F 28.5 °F 26.1 °F 65% 30.03 in 10.0 mi South 13.8 mph 19.6 mph N/A   Clear
5:48 PM 35.1 °F 27.9 °F 27.0 °F 72% 30.04 in 10.0 mi SSW 9.2 mph - N/A   Clear
6:48 PM 33.1 °F 27.7 °F 27.0 °F 78% 30.05 in 10.0 mi SSW 5.8 mph - N/A   Clear
7:48 PM 32.0 °F 24.8 °F 27.0 °F 82% 30.05 in 10.0 mi SW 8.1 mph - N/A   Clear
8:03 PM 32.0 °F 23.6 °F 26.6 °F 80% 30.04 in 10.0 mi SW 10.4 mph - N/A   Partly Cloudy
8:48 PM 30.9 °F 21.7 °F 26.1 °F 82% 30.04 in 10.0 mi SSW 11.5 mph - N/A   Clear
9:48 PM 30.9 °F 20.2 °F 25.0 °F 79% 30.03 in 10.0 mi SSW 15.0 mph - N/A   Clear
10:48 PM 32.0 °F 22.1 °F 24.1 °F 73% 30.03 in 10.0 mi SSW 13.8 mph - N/A   Clear
11:48 PM 30.9 °F 21.7 °F 21.9 °F 69% 30.01 in 10.0 mi SW 11.5 mph - N/A   Clear